Date String (YYYY-MM-DD hh:mm:ss) UTC,Instrument flags,absolute air pressure of the measurement (hPa),sample flow rate (lpm),inlet stack bypass flow (lpm),air temperature of the measurement (°C),ambient temperature measured by the external sensor (°C),aerosol sample conditioner tube jacket temperature (°C),OPC LED temperature (°C),internal box temperature (°C),relative humidity of the measurement (%),span deviation,mass concentration of particles derived from Lorenz-Mie calculation of OPC scattering (μg/m³),mass concentration of particles derived from Lorenz-Mie calculation of OPC scattering (μg/m³),mass concentration of particles derived from Lorenz-Mie calculation of OPC scattering (μg/m³)
DateTimeUTC,F1_M11,P_M11,Q1_M11,Q2_M11,T1_M11,T2_M11,T3_M11,T4_M11,T5_M11,U1_M11,ZSPAN_M11,X2_M11,X0_M11,X1_M11
2023-07-20 05:00:00,SystemResetWarning,0838.5,5.01,000.00,029.1,026.0,000.0,037.5,030.5,35.3,0000.0,0005.02,0009.94,0004.46
2023-07-20 05:01:00,SystemResetWarning,0838.6,5.01,000.00,029.4,026.4,000.0,037.5,030.7,34.7,0000.0,0005.05,0009.63,0004.46
2023-07-20 05:02:00,SystemResetWarning,0838.6,4.98,000.00,029.5,026.7,000.0,037.6,030.8,34.6,0000.0,0005.07,0009.19,0004.47
2023-07-20 05:03:00,SystemResetWarning,0838.6,5.01,000.00,029.7,027.0,000.0,037.6,030.8,34.6,0000.0,0005.05,0009.22,0004.47
2023-07-20 05:04:00,SystemResetWarning,0838.6,5.02,000.00,029.7,027.3,000.0,037.7,030.9,34.6,0000.0,0005.02,0009.20,0004.47
2023-07-20 05:05:00,SystemResetWarning,0838.6,5.00,000.00,029.8,027.5,000.0,037.7,031.0,34.4,0000.0,0004.99,0009.20,0004.47
2023-07-20 05:06:00,SystemResetWarning,0838.6,4.99,000.00,029.9,027.7,000.0,037.8,031.0,34.3,0000.0,0005.03,0009.30,0004.48
2023-07-20 05:07:00,SystemResetWarning,0838.7,4.99,000.00,029.9,027.9,000.0,037.9,031.1,34.4,0000.0,0005.06,0009.82,0004.49
2023-07-20 05:08:00,SystemResetWarning,0838.7,5.00,000.00,030.0,028.1,000.0,037.9,031.1,34.4,0000.0,0005.10,0009.90,0004.52
2023-07-20 05:09:00,SystemResetWarning,0838.7,5.01,000.00,030.0,028.0,000.0,038.0,031.2,34.4,0000.0,0005.12,0009.93,0004.53
2023-07-20 05:10:00,SystemResetWarning,0838.7,4.98,000.00,030.0,026.4,000.0,037.9,031.0,34.5,0000.0,0005.15,0009.71,0004.55
2023-07-20 05:11:00,SystemResetWarning,0838.6,5.00,000.00,029.9,025.5,000.0,037.8,030.9,34.5,0000.0,0005.16,0010.07,0004.58
2023-07-20 05:12:00,SystemResetWarning,0838.6,5.00,000.00,029.8,025.5,000.0,037.8,030.6,34.8,0000.0,0005.16,0010.17,0004.61
2023-07-20 05:13:00,SystemResetWarning,0838.6,4.99,000.00,029.7,025.8,000.0,037.9,030.6,35.2,0000.0,0005.20,0010.27,0004.64
2023-07-20 05:14:00,SystemResetWarning,0838.6,5.02,000.00,029.9,026.2,000.0,037.9,030.7,35.4,0000.0,0005.27,0011.05,0004.67
2023-07-20 05:15:00,SystemResetWarning,0838.6,5.00,000.00,030.1,026.6,000.0,038.0,030.9,34.9,0000.0,0005.35,0011.39,0004.71
2023-07-20 05:16:00,SystemResetWarning,0838.6,4.99,000.00,030.3,026.9,000.0,038.0,031.0,34.6,0000.0,0005.40,0011.60,0004.75
2023-07-20 05:17:00,SystemResetWarning,0838.7,5.02,000.00,030.4,027.2,000.0,038.0,031.1,34.3,0000.0,0005.46,0011.81,0004.80
2023-07-20 05:18:00,SystemResetWarning,0838.7,4.99,000.00,030.5,027.5,000.0,038.1,031.2,34.2,0000.0,0005.56,0011.67,0004.86
2023-07-20 05:19:00,SystemResetWarning,0838.7,4.99,000.00,030.6,027.7,000.0,038.2,031.2,34.0,0000.0,0005.64,0011.59,0004.91
2023-07-20 05:20:00,SystemResetWarning,0838.6,5.00,000.00,030.6,027.9,000.0,038.3,031.2,34.0,0000.0,0005.75,0011.86,0004.96
2023-07-20 05:21:00,SystemResetWarning,0838.6,5.01,000.00,030.7,028.0,000.0,038.4,031.3,34.1,0000.0,0005.84,0012.20,0005.02
2023-07-20 05:22:00,SystemResetWarning,0838.5,5.01,000.00,030.7,028.2,000.0,038.4,031.3,34.5,0000.0,0005.96,0012.15,0005.06
2023-07-20 05:23:00,SystemResetWarning,0838.6,5.00,000.00,030.7,027.9,000.0,038.5,031.3,34.6,-000.4,0006.12,0013.36,0005.12
2023-07-20 05:24:00,SystemResetWarning,0838.6,4.98,000.00,030.7,026.3,000.0,038.4,031.2,34.6,-000.0,0006.24,0014.08,0005.18
2023-07-20 05:25:00,SystemResetWarning,0838.6,5.01,000.00,030.6,025.5,000.0,038.3,031.0,34.9,-000.1,0006.32,0014.36,0005.24
2023-07-20 05:26:00,SystemResetWarning,0838.5,5.00,000.00,030.6,025.5,000.0,038.4,030.8,35.4,-000.2,0006.40,0014.90,0005.28
2023-07-20 05:27:00,SystemResetWarning,0838.6,5.01,000.00,030.7,025.9,000.0,038.4,030.9,35.4,-000.2,0006.49,0015.35,0005.35
2023-07-20 05:28:00,SystemResetWarning,0838.6,5.01,000.00,031.0,026.3,000.0,038.5,031.1,35.0,-000.6,0006.61,0016.41,0005.40
2023-07-20 05:29:00,SystemResetWarning,0838.6,4.98,000.00,031.2,026.7,000.0,038.5,031.3,34.3,-001.2,0006.74,0017.48,0005.44
2023-07-20 05:30:00,SystemResetWarning,0838.6,4.99,000.00,031.4,027.0,000.0,038.6,031.3,34.1,-001.6,0006.82,0017.92,0005.51
2023-07-20 05:31:00,SystemResetWarning,0838.6,5.01,000.00,031.5,027.3,000.0,038.7,031.4,34.1,-002.0,0006.94,0018.82,0005.57
2023-07-20 05:32:00,SystemResetWarning,0838.6,5.01,000.00,031.5,027.5,000.0,038.8,031.4,33.8,-002.2,0007.05,0019.65,0005.63
2023-07-20 05:33:00,SystemResetWarning,0838.6,5.00,000.00,031.6,027.8,000.0,038.9,031.4,33.7,-002.5,0007.13,0020.22,0005.70
2023-07-20 05:34:00,SystemResetWarning,0838.6,5.00,000.00,031.6,027.9,000.0,039.0,031.5,33.7,-002.7,0007.18,0019.99,0005.76
2023-07-20 05:35:00,SystemResetWarning,0838.6,5.00,000.00,031.6,028.1,000.0,039.1,031.5,33.8,-002.9,0007.28,0020.82,0005.82
2023-07-20 05:36:00,SystemResetWarning,0838.6,5.00,000.00,031.6,028.2,000.0,039.1,031.6,33.8,-002.5,0007.42,0021.10,0005.92
2023-07-20 05:37:00,SystemResetWarning,0838.6,5.01,000.00,031.6,028.3,000.0,039.2,031.6,33.6,-002.4,0007.50,0020.84,0006.00
2023-07-20 05:38:00,SystemResetWarning,0838.5,4.99,000.00,031.6,027.0,000.0,039.1,031.5,33.4,-002.1,0007.59,0021.05,0006.08
2023-07-20 05:39:00,SystemResetWarning,0838.6,5.00,000.00,031.5,025.7,000.0,039.0,031.2,33.4,-001.5,0007.75,0021.10,0006.17
2023-07-20 05:40:00,SystemResetWarning,0838.6,5.01,000.00,031.4,025.5,000.0,039.0,031.0,34.0,-000.9,0007.78,0020.79,0006.23
2023-07-20 05:41:00,SystemResetWarning,0838.6,5.01,000.00,031.2,025.7,000.0,039.1,030.9,34.2,-000.8,0007.83,0021.15,0006.29
2023-07-20 05:42:00,SystemResetWarning,0838.6,5.00,000.00,031.1,026.1,000.0,039.1,031.0,34.4,-000.9,0007.77,0021.88,0006.34
2023-07-20 05:43:00,SystemResetWarning,0838.6,5.00,000.00,031.1,026.5,000.0,039.1,031.1,34.5,-000.7,0007.84,0021.37,0006.40
2023-07-20 05:44:00,SystemResetWarning,0838.6,5.01,000.00,031.0,026.9,000.0,039.1,031.2,34.7,-000.2,0007.87,0020.67,0006.47
2023-07-20 05:45:00,SystemResetWarning,0838.6,5.00,000.00,031.0,027.2,000.0,039.1,031.2,34.7,0000.1,0007.94,0020.86,0006.52
2023-07-20 05:46:00,SystemResetWarning,0838.6,4.99,000.00,031.0,027.5,000.0,039.1,031.3,34.8,0000.6,0007.91,0020.95,0006.56
2023-07-20 05:47:00,SystemResetWarning,0838.6,4.99,000.00,031.0,027.7,000.0,039.1,031.4,35.0,0000.4,0007.97,0021.23,0006.57
2023-07-20 05:48:00,SystemResetWarning,0838.5,5.00,000.00,031.0,027.9,000.0,039.1,031.4,35.1,0000.4,0008.02,0021.26,0006.60
2023-07-20 05:49:00,SystemResetWarning,0838.5,5.01,000.00,031.2,028.0,000.0,039.1,031.6,34.7,0000.1,0008.07,0021.94,0006.63
2023-07-20 05:50:00,SystemResetWarning,0838.5,4.99,000.00,031.4,028.1,000.0,039.1,031.7,34.4,0000.1,0008.03,0021.31,0006.64
2023-07-20 05:51:00,SystemResetWarning,0838.5,5.02,000.00,031.4,028.3,000.0,039.2,031.7,34.3,0000.2,0008.03,0021.41,0006.67
2023-07-20 05:52:00,SystemResetWarning,0838.4,5.00,000.00,031.5,028.3,000.0,039.2,031.7,34.3,0000.2,0008.06,0021.47,0006.71
2023-07-20 05:53:00,SystemResetWarning,0838.4,4.99,000.00,031.5,026.9,000.0,039.1,031.6,34.0,0000.7,0008.18,0020.66,0006.75
2023-07-20 05:54:00,SystemResetWarning,0838.4,5.01,000.00,031.5,025.7,000.0,039.0,031.4,34.1,0000.6,0008.30,0021.20,0006.81
2023-07-20 05:55:00,SystemResetWarning,0838.3,5.00,000.00,031.3,025.4,000.0,039.0,031.1,33.6,0000.0,0008.38,0021.82,0006.84
2023-07-20 05:56:00,SystemResetWarning,0838.3,5.01,000.00,031.2,025.7,000.0,039.1,031.0,33.7,-000.2,0008.39,0022.30,0006.86
2023-07-20 05:57:00,SystemResetWarning,0838.4,5.01,000.00,031.1,026.1,000.0,039.1,031.1,33.8,-000.0,0008.42,0020.88,0006.90
2023-07-20 05:58:00,SystemResetWarning,0838.3,4.99,000.00,031.0,026.5,000.0,039.1,031.1,34.4,-000.2,0008.48,0020.78,0006.92
2023-07-20 05:59:00,SystemResetWarning,0838.3,5.00,000.00,031.0,026.9,000.0,039.1,031.2,33.9,0000.2,0008.55,0021.37,0006.96
